[[{"header":{"parameterUnit":"m.s-1","parameterCategory":1,"la1":30.2991,"la2":30.254,"lo1":-89.0895,"lo2":-89.0444,"dy":0.0017,"dx":0.0017,"nx":28,"ny":28,"refTime":"2024-05-09T03:00:00:Z","depth":0,"parameterNumber":2,"parameterNumberName":"U-component_of_WINDS"},"data":[0,0,0,0,0,0,0,0,0,0,0,0,0,0,0,0,0,0,0,0,0,0,0,0,0,0,0,0,0,0,0,0,0,0,0,0,0,0,0,0,0,0,0,0,0,0,0,0,0,0,0,0,0,0,0,0,0,0,0.3718,0.3718,0,0.3765,0.3766,0.3766,0.379,0.379,0.379,0.379,0.3841,0.3843,0.3844,0,0,0,0,0,0,0,0,0,0,0,0,0,0.3649,0.365,0.3718,0.3718,0.3719,0.3765,0.3766,0.3767,0.379,0.379,0.379,0.379,0.3841,0.3842,0.3844,0,0,0,0,0,0,0,0,0,0,0,0,0,0.3686,0.365,0.3718,0.3736,0.3738,0.3765,0.3766,0.3767,0.379,0.379,0.379,0.379,0.384,0.3842,0.3844,0.3857,0,0,0.3851,0.3851,0,0,0,0,0,0,0,0,0.3684,0.3688,0.3733,0.3735,0.3738,0.3772,0.376,0.3797,0.379,0.3771,0.379,0.379,0.3818,0.3822,0.3831,0.3859,0.3861,0.3851,0.3852,0.3853,0.3853,0,0,0,0,0,0,0,0.3681,0.3686,0.3737,0.3734,0.3736,0.3743,0.3748,0.3767,0.3794,0.3772,0.3774,0.3779,0.382,0.3829,0.3833,0.3862,0.3851,0.3852,0.3854,0.3854,0.3902,0.3902,0,0,0,0,0,0,0.3675,0.3684,0.3735,0.3738,0.371,0.3744,0.375,0.3761,0.3794,0.3799,0.3779,0.378,0.3826,0.383,0.3834,0.3851,0.3853,0.3855,0.3856,0.3902,0.3902,0.3902,0,0,0,0,0,0,0.3674,0.368,0.3733,0.3712,0.3719,0.3745,0.3757,0.3762,0.3771,0.3799,0.3804,0.3784,0.3826,0.3832,0.3851,0.3853,0.3856,0.3857,0.3902,0.3902,0.3902,0.3883,0,0,0,0,0,0,0.3672,0.3679,0.3684,0.3711,0.372,0.3748,0.3757,0.3763,0.3774,0.3776,0.3805,0.381,0.3826,0.3847,0.3853,0.3856,0.3859,0.3902,0.3902,0.3902,0.3884,0.3883,0.3882,0,0,0,0,0,0.3669,0.3677,0.3684,0.369,0.3726,0.3748,0.3753,0.3771,0.3775,0.378,0.3797,0.3809,0.3852,0.3849,0.3855,0.3859,0.3902,0.3902,0.3902,0.3884,0.3883,0.3882,0,0,0,0,0,0,0.365,0.3681,0.3689,0.3706,0.3724,0.3752,0.3759,0.377,0.3788,0.3789,0.3811,0.3818,0.3835,0.3849,0.3846,0.3872,0.3878,0.3879,0.3862,0.3861,0.386,0.3857,0.3861,0,0,0,0,0,0.3647,0.3662,0.3689,0.3702,0.371,0.3733,0.3743,0.3756,0.3776,0.3784,0.3803,0.3822,0.384,0.3852,0.387,0.3886,0.3892,0.3891,0.389,0.3889,0.389,0.3899,0.3899,0.3902,0.3902,0.3902,0,0,0.3643,0.3662,0.367,0.3698,0.3714,0.3729,0.3739,0.3755,0.3766,0.3786,0.3805,0.382,0.3843,0.3861,0.3869,0.3873,0.3891,0.3889,0.3888,0.389,0.3899,0.3899,0.3899,0.3902,0.3902,0.3902,0,0,0.3642,0.3658,0.367,0.3685,0.3708,0.3723,0.3726,0.3752,0.3762,0.3781,0.3796,0.381,0.3841,0.3856,0.3868,0.3872,0.3883,0.3878,0.3872,0.3881,0.3881,0.388,0.3881,0.3882,0.3878,0.3878,0.3878,0,0.3634,0.3657,0.3675,0.3689,0.3701,0.3719,0.3731,0.3745,0.3773,0.3781,0.3784,0.3822,0.3839,0.386,0.3861,0.387,0.3874,0.3875,0.3879,0.3879,0.3879,0.388,0.3881,0.3877,0.3878,0.3878,0.3878,0,0.3645,0.3661,0.3668,0.3693,0.3706,0.3719,0.3739,0.375,0.3761,0.3776,0.3795,0.3815,0.3837,0.3843,0.3855,0.3866,0.3867,0.3874,0.3881,0.3878,0.3879,0.388,0.3876,0.3877,0.3877,0.3877,0,0,0.3635,0.3669,0.3671,0.3683,0.3709,0.3721,0.3735,0.3756,0.3764,0.3783,0.3795,0.3819,0.3826,0.3839,0.3853,0.386,0.3861,0.3867,0.3867,0.3865,0.3874,0.3869,0.3869,0.3869,0.3869,0.3869,0.3872,0,0.3638,0.3663,0.3679,0.3698,0.3712,0.3729,0.3741,0.3758,0.3772,0.3786,0.3802,0.3819,0.3826,0.3834,0.3842,0.3859,0.3864,0.3859,0.3881,0.3881,0.3874,0.387,0.3864,0.3866,0.3873,0.3873,0.3873,0,0.3645,0.3661,0.3681,0.3705,0.3711,0.3722,0.3741,0.3755,0.3775,0.3784,0.3799,0.3812,0.3827,0.3832,0.3853,0.385,0.386,0.3869,0.387,0.3873,0.3877,0.3872,0.3867,0.3867,0.3874,0.3874,0.3874,0,0.3634,0.3662,0.3677,0.3686,0.3714,0.3721,0.3733,0.3753,0.3764,0.3782,0.3789,0.3808,0.3819,0.3834,0.3852,0.3853,0.3871,0.3878,0.388,0.3879,0.3883,0.3883,0.388,0.3889,0.3889,0.3889,0.3889,0,0.3636,0.3647,0.3673,0.3682,0.3695,0.3714,0.3727,0.374,0.3757,0.377,0.3786,0.3797,0.382,0.3834,0.3849,0.3864,0.3869,0.3877,0.3881,0.3876,0.3875,0.3882,0.3883,0.389,0.389,0.389,0.389,0,0.3627,0.3645,0.3662,0.3687,0.3693,0.3702,0.3723,0.3733,0.3747,0.3762,0.3767,0.3789,0.3807,0.3826,0.385,0.386,0.3874,0.388,0.3867,0.3869,0.3871,0.387,0.3872,0.3873,0.3882,0.3882,0.3882,0,0.3627,0.3636,0.3661,0.367,0.3681,0.3696,0.3707,0.3725,0.3736,0.3759,0.3766,0.3784,0.38,0.3827,0.3846,0.3864,0.387,0.387,0.3873,0.3867,0.387,0.3869,0.387,0.3869,0.3868,0.3868,0.3868,0,0.3625,0.3633,0.3647,0.3665,0.3677,0.3692,0.3708,0.3714,0.3736,0.3748,0.3765,0.3777,0.3801,0.3819,0.3839,0.3853,0.3864,0.3867,0.3868,0.3863,0.3855,0.3859,0.3864,0.3867,0.3867,0.3867,0.3867,0.3867,0.362,0.3629,0.3647,0.3663,0.3676,0.369,0.37,0.3715,0.373,0.375,0.376,0.3777,0.3796,0.3825,0.3837,0.3851,0.3855,0.3857,0.3858,0.3858,0.3856,0.3853,0.3855,0.3855,0.3855,0.3855,0.3855,0,0.3618,0.3631,0.3645,0.3666,0.3678,0.3686,0.3704,0.3714,0.3728,0.3745,0.3759,0.3779,0.3796,0.3816,0.3834,0.3842,0.3847,0.3846,0.3846,0.3848,0.3852,0.3849,0.3841,0.3841,0.3841,0.3841,0.3841,0.3841,0.3619,0.3633,0.3643,0.3664,0.3677,0.3693,0.3702,0.3715,0.3728,0.3749,0.3763,0.3775,0.3793,0.3812,0.3828,0.3834,0.384,0.3837,0.3844,0.3847,0.3848,0.3849,0.3846,0.3838,0.3838,0.3839,0.3839,0.3839]},{"header":{"parameterUnit":"m.s-1","parameterCategory":1,"la1":30.2991,"la2":30.254,"lo1":-89.0895,"lo2":-89.0444,"dy":0.0017,"dx":0.0017,"nx":28,"ny":28,"refTime":"2024-05-09T03:00:00:Z","depth":0,"parameterNumber":3,"parameterNumberName":"V-component_of_WINDS"},"data":[0,0,0,0,0,0,0,0,0,0,0,0,0,0,0,0,0,0,0,0,0,0,0,0,0,0,0,0,0,0,0,0,0,0,0,0,0,0,0,0,0,0,0,0,0,0,0,0,0,0,0,0,0,0,0,0,0,0,6.5026,6.5028,0,6.5244,6.5246,6.5248,6.5283,6.5281,6.5279,6.5277,6.5495,6.5502,6.551,0,0,0,0,0,0,0,0,0,0,0,0,0,6.4635,6.4642,6.5026,6.5029,6.5031,6.5243,6.5246,6.5249,6.5283,6.5281,6.5279,6.5276,6.5493,6.5501,6.5511,0,0,0,0,0,0,0,0,0,0,0,0,0,6.4824,6.4645,6.5025,6.5074,6.5081,6.5243,6.5246,6.525,6.5284,6.5281,6.5278,6.5275,6.549,6.5501,6.5512,6.5639,0,0,6.5547,6.5551,0,0,0,0,0,0,0,0,6.4813,6.4838,6.5064,6.5071,6.5079,6.5233,6.5188,6.538,6.5284,6.5206,6.5277,6.5274,6.541,6.5428,6.5475,6.5649,6.5659,6.5548,6.5554,6.5559,6.5563,0,0,0,0,0,0,0,6.48,6.4829,6.5112,6.5067,6.5076,6.5083,6.5107,6.5225,6.5321,6.5213,6.5216,6.5242,6.5413,6.5464,6.548,6.5662,6.5547,6.5557,6.5564,6.5569,6.5951,6.5955,0,0,0,0,0,0,6.4779,6.4818,6.5105,6.5118,6.4936,6.5093,6.5119,6.5186,6.532,6.5338,6.5244,6.5242,6.5446,6.5467,6.5488,6.5646,6.5559,6.557,6.5576,6.5948,6.5952,6.5956,0,0,0,0,0,0,6.477,6.4804,6.5096,6.4969,6.5007,6.5103,6.5178,6.5192,6.5243,6.5344,6.536,6.5278,6.5444,6.5472,6.5602,6.5654,6.5575,6.5585,6.5944,6.5949,6.5954,6.5962,0,0,0,0,0,0,6.4759,6.4801,6.4851,6.497,6.5014,6.5208,6.5181,6.5199,6.5263,6.5263,6.538,6.5396,6.5444,6.5584,6.5613,6.5668,6.5594,6.594,6.5946,6.5952,6.5958,6.5967,6.5975,0,0,0,0,0,6.4745,6.4844,6.4854,6.4888,6.5079,6.5211,6.5235,6.529,6.5267,6.5318,6.5382,6.5393,6.5643,6.5597,6.563,6.5689,6.5937,6.5945,6.5952,6.5954,6.5965,6.5974,0,0,0,0,0,0,6.4727,6.486,6.4873,6.5013,6.5101,6.5216,6.5282,6.53,6.5394,6.539,6.5452,6.5478,6.5604,6.566,6.5606,6.5819,6.5788,6.5802,6.5778,6.579,6.5798,6.5782,6.5604,0,0,0,0,0,6.474,6.4837,6.4948,6.5061,6.5104,6.5186,6.5245,6.5279,6.5372,6.5408,6.5483,6.557,6.5669,6.5732,6.5829,6.5966,6.5991,6.6022,6.6031,6.6037,6.6049,6.6125,6.614,6.5981,6.5981,6.598,0,0,6.4766,6.4851,6.4909,6.506,6.5131,6.523,6.5216,6.5321,6.5394,6.5424,6.5551,6.5609,6.5711,6.5845,6.5907,6.5894,6.6098,6.6047,6.6051,6.606,6.6134,6.6149,6.6163,6.5986,6.5985,6.5984,0,0,6.4865,6.4939,6.5042,6.5115,6.5224,6.5278,6.5302,6.5416,6.5456,6.5585,6.5609,6.5696,6.5865,6.5936,6.5995,6.6121,6.6134,6.615,6.6195,6.6268,6.6281,6.6292,6.6337,6.6353,6.6162,6.6162,6.6162,0,6.4884,6.5035,6.5092,6.5196,6.5262,6.5295,6.5398,6.5465,6.56,6.5643,6.5627,6.584,6.5911,6.6062,6.6093,6.6139,6.6168,6.6137,6.6275,6.6287,6.6298,6.6342,6.6358,6.6163,6.6163,6.6163,6.6163,0,6.5052,6.5156,6.5226,6.5357,6.543,6.5533,6.5605,6.5671,6.5699,6.5754,6.5885,6.5971,6.6085,6.6124,6.6151,6.6279,6.6268,6.6263,6.6233,6.6314,6.6356,6.6373,6.6165,6.6164,6.6164,6.6164,0,0,6.5145,6.5308,6.5332,6.5392,6.5515,6.5596,6.57,6.5814,6.587,6.5961,6.6049,6.6191,6.6188,6.6254,6.629,6.6354,6.6449,6.6342,6.6345,6.6358,6.6594,6.6597,6.6615,6.6458,6.6461,6.6464,6.6586,0,6.5258,6.5448,6.5502,6.5661,6.5757,6.579,6.5881,6.5965,6.6019,6.6107,6.6166,6.6266,6.6253,6.6294,6.6359,6.6423,6.6497,6.6415,6.6539,6.6543,6.6513,6.6637,6.6641,6.6752,6.6602,6.6605,6.6607,0,6.5416,6.5512,6.5681,6.5792,6.5835,6.5915,6.6024,6.6109,6.6204,6.6239,6.6313,6.6344,6.6452,6.6416,6.6566,6.6509,6.6563,6.6602,6.6608,6.6621,6.658,6.6654,6.6788,6.6804,6.6633,6.6631,6.6629,0,6.5467,6.5639,6.5762,6.5812,6.5945,6.6001,6.6058,6.6152,6.6217,6.6311,6.6353,6.6458,6.6515,6.6595,6.6652,6.6621,6.6797,6.6766,6.6827,6.6826,6.6863,6.686,6.7007,6.6898,6.6897,6.6897,6.6897,0,6.5588,6.5689,6.5787,6.5862,6.5977,6.6038,6.615,6.6208,6.6291,6.6378,6.6412,6.6492,6.6563,6.6652,6.6697,6.6814,6.6839,6.6869,6.688,6.6866,6.6863,6.6902,6.6896,6.6902,6.6901,6.69,6.6899,0,6.5664,6.5734,6.587,6.5985,6.6016,6.6096,6.6193,6.6267,6.6322,6.6431,6.646,6.6546,6.6653,6.6718,6.6853,6.6883,6.7012,6.702,6.698,6.6985,6.7043,6.7036,6.7221,6.7248,6.712,6.7121,6.7122,0,6.5737,6.5816,6.594,6.6001,6.606,6.6158,6.6225,6.6288,6.6356,6.6471,6.6531,6.664,6.6731,6.69,6.6973,6.7076,6.7087,6.7144,6.7102,6.7086,6.7087,6.7082,6.709,6.7151,6.7152,6.7153,6.7154,0,6.5858,6.5888,6.5984,6.6093,6.6172,6.626,6.6347,6.6394,6.6472,6.6546,6.6657,6.6727,6.6866,6.6973,6.7083,6.714,6.716,6.7167,6.7186,6.7173,6.7147,6.7162,6.6999,6.7162,6.7161,6.7161,6.716,6.716,6.5935,6.6007,6.6106,6.6211,6.6284,6.6365,6.644,6.6505,6.6599,6.6718,6.6749,6.6864,6.6958,6.7107,6.7167,6.7258,6.7249,6.7277,6.7284,6.729,6.7292,6.7133,6.7278,6.7277,6.7277,6.7277,6.7277,0,6.6058,6.6123,6.622,6.6342,6.6424,6.6437,6.6534,6.6602,6.6704,6.6791,6.688,6.7006,6.7111,6.7193,6.73,6.7357,6.7368,6.7382,6.7379,6.7392,6.7293,6.7266,6.7371,6.7371,6.7371,6.7371,6.7371,6.7371,6.6131,6.6254,6.6296,6.6455,6.6519,6.6634,6.6689,6.6763,6.6832,6.6973,6.7061,6.7114,6.7198,6.7312,6.7408,6.7429,6.7467,6.748,6.7502,6.7409,6.7399,6.7389,6.7363,6.7487,6.7487,6.7593,6.7594,6.7595]}]]